Weather in Alcala de Henares

Spain     40°29′25″N   3°23′03″W
temp.,
°C
wind,
m/s
gust,
m/s
humid.,
%
clouds,
%
prec.,
mm/h
press.,
hPa
HPBL,
m
29 july, thu
thu2923:00+30se01230 0.0 101011
02:00+26se611420 0.0 1012374
05:00+23ene34580 0.0 1012234
08:00+22ene24610 0.0 1013215
11:00+28sse33340 0.0 1013703
14:00+33sw57200 0.0 10112068
17:00+36wsw68140 0.0 10092920
20:00+35wsw89135 0.0 10083112
30 july, fri
fri3023:00+31w510170 0.0 1010474
02:00+28sw36190 0.0 1010147
05:00+25ssw24240 0.0 1011106
08:00+23ssw23290 0.0 1012140
11:00+28sw44210 0.0 1012902
14:00+32sw55160 0.0 10111851
17:00+34ssw56130 0.0 10092691
20:00+34sw45130 0.0 10083115
31 july, sat
sat3123:00+30wnw47150 0.0 1009363
02:00+25ne34220 0.0 101098
05:00+21e223736 0.0 1010131
08:00+21ssw133681 0.0 1010263
11:00+24ssw1232100 0.0 10111032
14:00+28wsw23240 0.0 10101871
17:00+30wnw972112 0.0 10083229
20:00+26n872811 0.0 10111794
1 august, sun
sun123:00+21ne584173 0.0 1014653
02:00+18ne5753100 0.0 1015431
05:00+17ne365699 0.0 1015267
08:00+16ne35580 0.0 1016212
11:00+21ne22380 0.0 1015670
14:00+26wsw44280 0.0 10131876
17:00+29sw451985 0.0 10112778
20:00+29sw45154 0.0 10103113
2 august, mon
mon223:00+25nne58200 0.0 1012266
02:00+21ne59290 0.0 1013240
05:00+18ne5845100 0.0 1014257
08:00+18ne3453100 0.0 1015175
11:00+22e2356100 0.0 1015846
14:00+28wsw3427100 0.0 10141971
17:00+31w3517100 0.0 10112554
20:00+31wnw441617 0.0 10111486